Price, UT

3:06 AM MDT on June 28, 2017 (GMT -0600)
Carbon County

Weather History for KPUC - June, 2013

Change the Weather History Date:

Tuesday, June 25, 2013

  Actual Average Record
Temperature  
Mean Temperature 68 °F -  
Max Temperature 86 °F 84 °F 99 °F (1988)
Min Temperature 52 °F 52 °F 34 °F (1976)
Cooling Degree Days 3    
Growing Degree Days 18 (Base 50)    
Moisture  
Dew Point 33 °F    
Average Humidity 27    
Maximum Humidity 50    
Minimum Humidity 15    
Precipitation  
Precipitation 0.00 in - - ()
Sea Level Pressure  
Sea Level Pressure 29.82 in    
Wind  
Wind Speed 5 mph (ENE)    
Max Wind Speed 12 mph    
Max Gust Speed 18 mph    
Visibility 10 miles    
Events      
Averages and records for this station are not official NWS values.
T = Trace of Precipitation, MM = Missing Value Source: NWS Daily Summary

Daily Weather History Graph

Daily Weather History Graph

Search for Another Location

Airport or City:

Trip Planner

Search our weather history database for the weather conditions in past years. The results will help you decide how hot, cold, wet, or windy it might be!

Date:

Astronomy

Jun. 25, 2013 Rise Set
Actual Time 5:56 AM MDT 8:54 PM MDT
Civil Twilight 5:24 AM MDT 9:27 PM MDT
Nautical Twilight 4:43 AM MDT 10:08 PM MDT
Astronomical Twilight 3:55 AM MDT 10:56 PM MDT
Moon 10:43 PM MDT (6/25) 8:40 AM MDT (6/25)
Length of Visible Light 16h 02m
Length of Day
14h 57m
Waning Gibbous, 92% of the Moon is Illuminated
Jun 25
Waning Gibbous
Jun 29
Last Quarter
Jul 8
New
Jul 15
First Quarter
Jul 22
Full

Hourly Weather History & Observations

Time (MDT) Temp. Dew Point Humidity Pressure Visibility Wind Dir Wind Speed Gust Speed Precip Events Conditions
12:53 AM 64.9 °F 37.0 °F 36% 29.73 in 10.0 mi North 6.9 mph - N/A   Overcast
1:53 AM 63.0 °F 36.0 °F 37% 29.74 in 10.0 mi NNE 6.9 mph - N/A   Mostly Cloudy
2:53 AM 60.1 °F 36.0 °F 41% 29.76 in 10.0 mi Calm Calm - N/A   Clear
3:53 AM 55.0 °F 35.1 °F 47% 29.79 in 10.0 mi North 6.9 mph - N/A   Clear
4:53 AM 54.0 °F 34.0 °F 47% 29.82 in 10.0 mi NNE 8.1 mph - N/A   Clear
5:53 AM 52.0 °F 34.0 °F 50% 29.86 in 10.0 mi NE 4.6 mph - N/A   Clear
6:53 AM 57.9 °F 35.1 °F 42% 29.87 in 10.0 mi NE 4.6 mph - N/A   Clear
7:53 AM 64.0 °F 36.0 °F 35% 29.86 in 10.0 mi Calm Calm - N/A   Clear
8:53 AM 68.0 °F 34.0 °F 28% 29.87 in 10.0 mi Calm Calm - N/A   Clear
9:53 AM 71.1 °F 34.0 °F 26% 29.87 in 10.0 mi SW 3.5 mph - N/A   Clear
10:53 AM 75.0 °F 34.0 °F 22% 29.86 in 10.0 mi SSW 8.1 mph - N/A   Clear
11:53 AM 77.0 °F 33.1 °F 20% 29.86 in 10.0 mi SSW 5.8 mph - N/A   Clear
12:53 PM 78.1 °F 32.0 °F 19% 29.85 in 10.0 mi Calm Calm - N/A   Clear
1:53 PM 82.9 °F 32.0 °F 16% 29.83 in 10.0 mi SSW 11.5 mph 18.4 mph N/A   Partly Cloudy
2:53 PM 82.9 °F 33.1 °F 17% 29.83 in 10.0 mi Variable 5.8 mph - N/A   Scattered Clouds
3:53 PM 84.0 °F 32.0 °F 15% 29.83 in 10.0 mi SSW 10.4 mph - N/A   Mostly Cloudy
4:53 PM 84.0 °F 32.0 °F 15% 29.82 in 10.0 mi South 6.9 mph - N/A   Scattered Clouds
5:53 PM 84.9 °F 32.0 °F 15% 29.81 in 10.0 mi Variable 4.6 mph - N/A   Clear
6:53 PM 82.9 °F 33.1 °F 17% 29.79 in 10.0 mi SW 6.9 mph - N/A   Partly Cloudy
7:53 PM 82.9 °F 33.1 °F 17% 29.77 in 10.0 mi Calm Calm - N/A   Partly Cloudy
8:53 PM 79.0 °F 33.1 °F 19% 29.78 in 10.0 mi East 5.8 mph - N/A   Clear
9:53 PM 79.0 °F 28.0 °F 15% 29.80 in 10.0 mi Calm Calm - N/A   Scattered Clouds
10:53 PM 73.9 °F 28.9 °F 19% 29.81 in 10.0 mi ENE 6.9 mph - N/A   Scattered Clouds
11:53 PM 66.9 °F 28.9 °F 24% 29.85 in 10.0 mi NNE 9.2 mph - N/A   Clear